SHENZHOU-19 (SZ-19)

Last updated on Thu Nov 21 2024 00:02:05 GMT+0000 (Coordinated Universal Time)

1 61683U 24194A 24325.35088087 .00036371 00000+0 45831-3 0 9992 2 61683 41.4657 210.8559 0002795 333.6468 26.4228 15.58884123203216
UTC large
Height (km)
Speed (km/s)
/
Latitude / Longitude
Inclination (degrees)
Orbital Period (minutes)
Azimuth
Elevation
Range (km)
Doppler Factor

Next 0 passes for location: London (51.5072 / 0.1276)

Sorry there are no passes over London.